Weather observations for the past three days for
Ambler, Ambler Airport
Imperial (Metric)
Date Time (akdt) Wind (mph) Vis. (mi.) Weather Sky Cond. Temperature (ºF) Relative Humidity Wind Chill (°F) Heat Index (°F) Pressure Precipitation (in)
Air Dwpt 6 hour altimeter (in) sea level (mb) 1 hr 3 hr 6 hr
Max. Min.
15 03:56 Calm 10.00 Overcast OVC060 50 44.1 60.1 46.9 80% 29.62 1003.3
15 02:56 SE 3 9.00 Partly Cloudy SCT100 50 43 77% 29.61 1003.1
15 01:56 Calm 10.00 Overcast BKN075 OVC110 53.1 44.1 72% 29.6 1002.9
15 00:56 S 5 10.00 Mostly Cloudy BKN070 BKN100 54 44.1 69% 29.59 1002.3
14 23:56 SW 5 10.00 A Few Clouds FEW070 54 42.1 64% 29.57 1001.6
14 22:56 SW 7 10.00 Fair CLR 57 43 60% 29.55 1000.8
14 21:56 S 8 10.00 Fair CLR 60.1 43 64.9 60.1 53% 29.52 1000.1
14 20:56 SW 7 10.00 Mostly Cloudy FEW049 BKN065 61 44.1 54% 29.51 999.7
14 19:56 S 7 10.00 Overcast BKN050 OVC065 62.1 45 54% 29.5 999.2
14 18:56 SE 7 10.00 Mostly Cloudy FEW039 BKN060 62.1 48.9 62% 29.49 998.9
14 17:56 E 6 10.00 A Few Clouds FEW033 63 51.1 65% 29.49 998.8
14 16:56 SE 8 10.00 Overcast FEW026 BKN050 OVC060 62.1 52 70% 29.48 998.7
14 15:56 E 7 10.00 Mostly Cloudy SCT024 SCT030 BKN048 60.1 52 60.1 53.1 75% 29.48 998.6 0.07
14 14:56 E 7 10.00 Mostly Cloudy FEW010 SCT036 BKN045 57 54 90% 29.48 998.4
14 13:56 E 8 10.00 Light Rain BKN005 OVC022 54 52 93% 29.46 998.0 0.01
14 12:56 S 6 6.00 Light Rain Fog/Mist BKN004 OVC008 53.1 53.1 100% 29.44 997.2 0.01 0.06
14 11:56 E 9 9.00 Light Rain OVC004 54 54 100% 29.42 996.6 0.01
14 10:56 NE 5 2.00 Rain Fog/Mist BKN004 OVC007 54 53.1 97% 29.41 996.3 0.04
14 09:56 NE 8 10.00 Light Rain OVC022 54 53.1 54 52 97% 29.4 995.9 0.01 0.17
14 08:56 NE 7 4.00 Light Rain Fog/Mist OVC030 53.1 52 96% 29.39 995.7 0.05
14 07:56 N 8 10.00 Light Rain OVC030 53.1 52 96% 29.39 995.7
14 06:56 NE 6 8.00 Light Rain OVC034 53.1 52 96% 29.4 995.9 0.05 0.11
14 05:56 NE 8 10.00 Light Rain SCT044 BKN065 OVC075 52 51.1 97% 29.42 996.4 0.02
14 04:56 N 6 10.00 Light Rain SCT050 OVC065 53.1 51.1 93% 29.43 996.9 0.04
14 03:56 N 7 10.00 Rain BKN050 OVC065 53.1 51.1 59 53.1 93% 29.43 997.1 0.05 0.06
14 02:56 N 7 10.00 Light Rain OVC060 55 50 83% 29.44 997.2 0.01
14 01:56 N 5 10.00 Light Rain OVC070 55 50 83% 29.44 997.4
14 00:56 Calm 10.00 Light Rain OVC070 57.9 48 70% 29.46 998.0
13 23:56 NW 5 10.00 Overcast OVC070 57.9 48 70% 29.48 998.7
13 22:56 W 3 10.00 Overcast OVC080 57.9 48.9 72% 29.5 999.3
13 21:56 N 5 10.00 Mostly Cloudy BKN090 BKN110 59 50 64 59 72% 29.52 1000.0
13 20:56 NE 8 10.00 Mostly Cloudy BKN065 62.1 48.9 62% 29.54 1000.5
13 19:56 Vrbl 5 10.00 Mostly Cloudy BKN060 64 48.9 58% 29.55 1001.0
13 18:56 E 7 10.00 Mostly Cloudy BKN070 63 46.9 56% 29.56 1001.3
13 17:56 SE 8 10.00 Fair CLR 63 48 58% 29.57 1001.8
13 16:56 S 7 10.00 Partly Cloudy FEW039 SCT060 SCT075 63 48 58% 29.59 1002.2
13 15:56 SE 12 G 17 10.00 Mostly Cloudy BKN070 64 48 64 55 56% 29.6 1002.8 0.01 0.01
13 14:56 SE 8 10.00 Overcast SCT028 BKN035 OVC070 61 48.9 65% 29.61 1002.9
13 13:56 SE 8 10.00 Overcast SCT031 BKN060 OVC070 60.1 48.9 67% 29.62 1003.3
13 12:56 SE 7 10.00 Overcast SCT025 BKN033 OVC060 57 51.1 81% 29.62 1003.4
13 11:56 E 10 G 16 10.00 Overcast SCT023 SCT034 OVC044 57 50 78% 29.63 1003.5
13 10:56 SE 9 10.00 Overcast SCT027 OVC033 55.9 50 81% 29.63 1003.5
13 09:56 SE 10 10.00 Overcast FEW013 OVC046 55 50 55.9 51.1 83% 29.62 1003.4 0.02
13 08:56 SE 10 G 16 10.00 Overcast OVC041 54 51.1 90% 29.62 1003.4
13 07:56 E 8 10.00 Overcast SCT011 SCT024 OVC043 54 51.1 90% 29.61 1003.2
13 06:56 N 7 10.00 Overcast OVC041 52 51.1 97% 29.62 1003.2 0.02
13 05:56 NE 5 10.00 Overcast FEW015 OVC100 52 50 93% 29.61 1003.2
13 04:56 NE 3 10.00 Light Rain OVC060 51.1 50 96% 29.62 1003.3 0.02
13 03:56 E 7 10.00 Light Rain SCT007 BKN011 OVC060 52 51.1 64 52 97% 29.62 1003.4 0.03 0.15
13 02:56 NE 6 10.00 Light Rain BKN013 OVC060 52 51.1 97% 29.63 1003.5 0.03
13 01:56 NE 6 10.00 Light Rain BKN033 OVC043 52 51.1 97% 29.63 1003.6 0.02
13 00:56 NE 9 10.00 Light Rain SCT055 OVC070 53.1 51.1 93% 29.62 1003.5 0.01 0.07
12 21:56 SE 14 G 22 10.00 Mostly Cloudy SCT042 BKN060 64 52 71.1 63 65% 29.62 1003.3
12 20:56 NE 12 10.00 Overcast BKN070 OVC080 63 52 68% 29.61 1003.0
12 19:56 E 12 10.00 Overcast FEW060 OVC075 64.9 48.9 56% 29.63 1003.6
12 18:56 SE 5 10.00 Light Rain SCT070 OVC095 63 52 68% 29.65 1004.5
12 17:56 E 10 10.00 Overcast BKN065 OVC085 69.1 46.9 45% 29.66 1004.6
12 16:56 E 9 10.00 Mostly Cloudy BKN050 71.1 50 47% 29.68 1005.3
12 15:56 Vrbl 7 10.00 Fair CLR 70 51.1 70 57.9 51% 29.71 1006.5
12 13:56 E 8 10.00 Partly Cloudy SCT040 66.9 50 55% 29.77 1008.4
12 12:56 SE 10 10.00 A Few Clouds FEW033 66 52 61% 29.79 1009.2
12 11:56 SE 9 10.00 Mostly Cloudy BKN027 64 53.1 68% 29.81 1009.9
12 10:56 SE 7 10.00 Mostly Cloudy SCT016 BKN090 62.1 55 78% 29.83 1010.3
12 09:56 NE 6 10.00 Overcast FEW008 BKN014 OVC080 57.9 55.9 57.9 52 93% 29.84 1010.7
12 07:56 E 3 10.00 Overcast BKN003 OVC011 55 55 100% 29.86 1011.5
12 06:56 Calm 10.00 Overcast OVC003 54 54 100% 29.87 1011.7
12 05:56 Calm 0.15 Fog OVC001 53.1 53.1 100% 29.87 1011.7
12 04:56 N 3 0.15 Fog OVC001 53.1 52 96% 29.87 1011.7
Date Time (akdt) Wind (mph) Vis. (mi.) Weather Sky Cond. Air Dwpt Max. Min. Relative Humidity Wind Chill (°F) Heat Index (°F) altimeter (in) sea level (mb) 1 hr 3 hr 6 hr
6 hour
Temperature (ºF) Pressure Precipitation (in)